This is the latest recevied weather packets stored in our database for station/object KA1AL. If no packets are shown the sender has not sent any weather packets the latest 10 day(s).
| Time | Temp. | Humidity | Pressure | Rain* | Wind** | Luminosity | Snow |
|---|---|---|---|---|---|---|---|
| 1778019666 | 17.22° C | 87% | 1005.2 hPa | 0 mm | - | 12 W/m² | - |
| 1778019363 | 18.89° C | 79% | 1004.6 hPa | 0 mm | - | 1 W/m² | - |
| 1778019059 | 20.56° C | 64% | 1004.5 hPa | 0 mm | - | 3 W/m² | - |
| 1778018756 | 20.56° C | 63% | 1003.3 hPa | 0 mm | - | 8 W/m² | - |
| 1778018454 | 20.56° C | 63% | 1002.5 hPa | 0 mm | - | 16 W/m² | - |
| 1778018152 | 20.56° C | 63% | 1002.5 hPa | 0 mm | - | 32 W/m² | - |
| 1778017849 | 21.11° C | 62% | 1002.2 hPa | 0 mm | - | 58 W/m² | - |
| 1778017548 | 21.11° C | 62% | 1002.4 hPa | 0 mm | - | 46 W/m² | - |
| 1778017244 | 21.11° C | 62% | 1002 hPa | 0 mm | - | 67 W/m² | - |
| 1778016942 | 21.67° C | 61% | 1002.2 hPa | 0 mm | - | 90 W/m² | - |
| 1778016638 | 21.67° C | 60% | 1002.1 hPa | 0 mm | - | 127 W/m² | - |
| 1778016334 | 21.67° C | 60% | 1002 hPa | 0 mm | - | 241 W/m² | - |
| 1778016032 | 21.67° C | 61% | 1002 hPa | 0 mm | - | 118 W/m² | - |
| 1778015729 | 21.67° C | 61% | 1002 hPa | 0 mm | - | 143 W/m² | - |
| 1778015425 | 21.67° C | 61% | 1001.9 hPa | 0 mm | - | 142 W/m² | - |
| 1778015122 | 21.67° C | 61% | 1001.9 hPa | 0 mm | - | 115 W/m² | - |
| 1778014820 | 21.67° C | 60% | 1002 hPa | 0 mm | - | 150 W/m² | - |
| 1778014518 | 22.22° C | 59% | 1001.6 hPa | 0 mm | - | 149 W/m² | - |
| 1778014214 | 22.22° C | 59% | 1001.8 hPa | 0 mm | - | 140 W/m² | - |
| 1778013912 | 22.78° C | 59% | 1001.8 hPa | 0 mm | - | 173 W/m² | - |
| 1778013609 | 22.22° C | 58% | 1001.9 hPa | 0 mm | - | 249 W/m² | - |
| 1778013305 | 22.22° C | 59% | 1002.1 hPa | 0 mm | - | 176 W/m² | - |
| 1778013002 | 22.78° C | 58% | 1002.1 hPa | 0 mm | - | 180 W/m² | - |
| 1778012699 | 22.22° C | 58% | 1002 hPa | 0 mm | - | 229 W/m² | - |
| 1778012394 | 22.22° C | 58% | 1001.9 hPa | 0 mm | - | 133 W/m² | - |
* Rain latest hour (hover to see other rain measurements)
** Current wind speed in m/s (hover to see current wind gust speed)